Location: B?dargowo
(53.3916°N, 14.4413°E)
Time: 08:59:43
(UTC+00:00)

USA 281 - Pass Details

Date: 05 February 2023
Orbit: 1079 x 1080 km, 106.0° (Epoch: 19 March)

Event Time Altitude Azimuth Distance (km) Brightness Sun altitude
Rises 17:08:54 0° 27° (NNE) 3,893 5.8 -11.6°
Reaches altitude 10° 17:11:28 10° 23° (NNE) 2,933 5.2 -12.0°
Maximum altitude 17:17:49 52° 310° (NW) 1,319 4.0 -12.9°
Drops below altitude 10° 17:24:07 10° 236° (SW) 2,919 6.5 -13.8°
Sets 17:26:41 0° 231° (SW) 3,872 7.2 -14.2°
